カタログに戻る

ASTRA 2C

運用中通信GEO
NORAD 26853·PAYLOAD·🇱🇺 Luxembourg

打ち上げ Jun 16, 2001 から Baikonur Cosmodrome

Loading…

TLE

最新Source: Space-Track

元期: Sep 14, 2026, 15:42 UTC

1 26853U 01025A   26257.65484764 -.00000168  00000-0  00000-0 0  9994
2 26853   8.4059  63.1749 0002172 345.5063   0.4983  0.99040978 45830

AllMySatでASTRA 2Cをリアルタイム追跡

Download on the App Store